EHI
7 7 9 15 22 23 17 15 17 17 18 19 18 15 13 10 6 3 2 1 1 2 3 3 2 1 0 0 0 0 1 0 0 0 0 1 0 0 0 0 0 0 0
7 8 10 15 21 22 18 15 16 17 17 16 15 13 11 9 5 3 3 1 0 1 2 3 3 2 1 1 1 1 1 0 0 0 0 1 0 0 0 0 0 0 0
6 8 10 13 17 19 18 17 16 15 14 11 11 11 10 7 4 2 2 1 0 0 1 2 3 3 3 2 2 2 1 0 0 0 0 0 0 0 0 0 0 0 0
6 7 9 10 13 15 16 15 15 13 10 9 10 10 9 6 3 2 1 1 0 0 0 1 3 3 3 3 3 2 1 0 0 0 0 0 0 0 0 0 0 0 0
6 7 7 8 9 10 10 11 11 10 8 8 9 9 8 5 3 2 1 0 0 0 0 1 2 2 2 2 2 2 1 0 0 0 0 0 0 0 0 0 0 0 0
5 5 6 6 6 6 6 7 7 8 8 8 8 7 5 4 3 3 2 1 1 0 0 0 1 1 1 1 1 1 0 0 0 0 0 0 0 0 0 0 0 0 0
2 3 3 3 3 2 3 4 6 6 6 6 4 3 3 3 3 3 3 2 1 0 0 0 0 0 0 0 0 0 0 0 0 0 0 0 0 0 0 0 0 0 0
0 1 1 1 1 0 1 3 4 4 3 2 1 1 1 3 3 3 3 2 1 0 0 0 0 0 0 0 0 0 0 0 0 0 0 0 0 0 0 0 0 0 0
0 0 0 0 0 0 1 2 2 1 1 0 0 0 1 2 3 3 2 1 0 0 0 0 0 0 0 0 0 0 0 0 0 0 0 0 0 0 0 0 0 0 0
0 0 0 0 0 0 0 1 1 0 0 0 0 0 1 2 2 1 1 0 0 0 0 0 0 0 0 0 0 0 0 0 0 0 0 0 0 0 0 0 0 0 0
0 0 0 0 0 0 0 0 0 0 0 0 0 0 1 1 1 0 0 0 0 0 0 0 0 0 0 0 0 0 0 0 0 0 0 0 0 0 0 0 0 0 0
0 0 0 0 0 0 0 0 0 0 0 0 0 0 0 0 0 0 0 0 0 0 0 0 0 0 0 0 0 0 0 0 0 0 0 0 0 0 0 0 0 0 0
0 0 0 0 0 0 0 0 0 0 0 0 0 0 0 0 0 0 0 0 0 0 0 0 0 0 0 0 0 0 0 0 0 0 0 0 0 0 0 0 0 0 0
0 0 0 0 0 0 0 0 0 0 0 0 0 0 0 0 0 0 0 0 0 0 0 0 0 0 0 0 0 0 0 0 0 0 0 0 0 0 0 0 0 0 0
0 0 0 0 0 0 0 0 0 0 0 0 0 0 0 0 0 0 0 0 0 0 0 0 0 0 0 0 0 0 0 0 0 0 0 0 0 0 0 0 0 0 0
0 0 0 0 0 0 0 0 0 0 0 0 0 0 0 0 0 0 0 0 0 0 0 0 0 0 0 0 0 0 0 0 0 0 0 0 0 0 0 0 0 0 0
0 0 0 0 0 0 0 0 0 0 0 0 0 0 0 0 0 0 0 0 0 0 0 0 0 0 0 0 0 0 0 0 0 0 0 0 0 0 0 0 0 0 0
0 0 0 0 0 0 0 0 0 0 0 0 0 0 0 0 0 0 0 0 0 0 0 0 0 0 0 0 0 0 0 0 0 0 0 0 0 0 0 0 0 0 0
0 0 0 0 0 0 0 0 0 0 0 0 0 0 0 0 0 0 0 0 0 0 0 0 0 0 0 0 0 0 0 0 0 0 0 0 0 0 0 0 0 0 0
0 0 0 0 0 0 0 0 0 0 0 0 0 0 0 0 0 0 0 0 0 0 0 0 0 0 0 0 0 0 0 0 0 0 0 0 0 0 0 0 0 0 0
0 0 0 0 0 0 0 0 0 0 0 0 0 0 0 0 0 0 0 0 0 0 0 0 0 0 0 0 0 0 0 0 0 0 0 0 0 0 0 0 0 0 0
0 0 0 0 0 0 0 0 0 0 0 0 0 0 0 0 0 0 0 0 0 0 0 0 0 0 0 0 0 0 0 0 0 0 0 0 0 0 0 0 0 0 0
0 0 0 0 0 0 0 0 0 0 0 0 0 0 0 0 0 0 0 0 0 0 0 0 0 0 0 0 0 0 0 0 0 0 0 0 0 0 0 0 0 0 0
0 0 0 0 0 0 0 0 0 0 0 0 0 0 0 0 0 0 0 0 0 0 0 0 0 0 0 0 0 0 0 0 0 0 0 0 0 0 0 0 0 0 0
0 0 0 0 0 0 0 0 0 0 0 0 0 0 0 0 0 0 0 0 0 0 0 0 0 0 0 0 0 0 0 0 0 0 0 0 0 0 0 0 0 0 0
0 0 0 0 0 0 0 0 0 0 0 0 0 0 0 0 0 0 0 0 0 0 0 0 0 0 0 0 0 0 0 0 0 0 0 0 0 0 0 0 0 0 0
Wind_Speed
5 6 5 4 4 4 4 3 3 3 3 3 4 4 3 3 3 3 5 4 4 4 4 2 2 2 2 2 2 2 3 2 1 2 3 3 5 6 5 5 5 6 6
7 7 7 6 6 6 5 3 3 2 2 2 2 3 3 3 3 4 6 6 5 4 4 4 3 3 2 3 3 2 2 2 2 1 2 1 1 3 5 5 5 6 5
7 8 8 7 7 6 5 3 4 3 2 3 4 4 4 3 3 5 5 6 6 7 6 6 5 4 4 3 3 2 2 2 2 2 1 2 3 2 2 5 5 5 5
8 8 8 8 8 6 5 5 4 3 3 3 5 6 4 4 4 4 5 7 7 7 7 7 7 6 5 5 4 4 3 3 2 2 3 2 2 3 2 2 4 5 6
8 8 8 7 7 7 6 5 4 5 4 3 4 6 6 6 6 7 9 8 7 8 8 8 7 7 6 7 7 6 6 4 3 2 2 3 3 3 3 2 2 3 4
8 8 8 8 8 7 7 6 6 6 6 6 6 7 9 9 9 8 8 7 6 7 9 9 8 8 7 8 8 8 9 7 7 6 5 3 3 2 2 2 1 2 2
7 8 9 8 8 8 8 7 7 8 7 8 8 8 9 10 10 9 8 7 6 6 8 8 8 8 8 9 8 9 9 8 9 7 6 5 4 2 2 3 2 2 2
7 8 8 8 8 8 8 7 7 8 9 9 9 9 9 8 7 8 8 7 6 6 7 8 9 9 9 9 8 8 8 8 8 9 7 6 5 4 3 2 2 2 2
7 7 7 8 8 8 8 8 8 9 9 9 10 10 10 10 10 10 9 8 7 7 9 9 9 9 9 9 8 8 8 7 7 7 7 6 5 5 5 4 2 2 1
6 7 7 7 7 8 8 9 10 10 10 10 10 10 10 11 10 10 10 9 9 8 9 9 9 9 9 8 8 7 7 8 6 5 7 6 5 5 5 4 4 3 2
6 6 6 6 7 8 9 9 10 10 10 11 11 11 11 10 10 10 10 9 8 8 9 8 8 8 8 7 7 7 7 8 7 6 7 6 5 5 4 4 4 4 2
7 7 7 7 8 9 9 9 9 10 10 10 11 10 10 10 10 10 9 9 9 8 8 8 8 8 7 7 7 7 7 7 6 6 6 5 4 5 4 4 4 3 2
8 7 7 7 8 8 9 9 9 9 9 10 10 10 10 9 9 9 8 8 8 8 8 8 8 7 6 6 6 6 6 5 5 4 4 4 4 4 3 3 3 2 2
8 7 7 7 7 8 8 9 8 8 9 10 10 9 8 8 8 8 7 7 7 7 7 7 6 6 6 5 5 5 5 5 4 4 3 3 3 2 2 2 2 1 2
8 8 7 7 7 7 7 7 8 7 8 9 9 8 7 7 7 7 7 6 7 7 6 6 6 5 5 4 4 4 4 4 4 4 4 3 3 3 2 2 1 1 1
9 8 8 8 7 7 6 7 7 6 7 8 7 7 7 7 7 6 6 6 6 6 6 6 6 6 4 6 6 4 4 4 4 4 4 3 4 5 6 6 4 2 2
10 9 8 7 7 6 6 6 6 6 7 7 6 6 6 6 5 5 6 5 5 5 5 5 5 5 5 7 7 7 4 4 3 3 3 3 3 5 4 6 6 4 4
10 9 8 7 6 6 6 6 6 6 6 6 5 5 5 5 5 5 5 4 3 3 3 3 4 4 5 7 7 7 5 4 3 3 2 3 4 4 5 5 5 5 4
9 8 7 7 7 6 6 6 6 6 6 5 4 4 4 4 4 4 3 2 2 2 2 2 3 4 4 7 6 5 3 3 4 4 3 4 4 6 6 4 5 6 5
9 8 7 8 7 6 6 7 6 5 5 4 3 3 4 4 4 3 2 2 2 2 2 3 3 3 4 6 7 5 2 3 3 4 4 4 6 7 6 3 3 5 5
9 8 8 7 6 6 6 6 5 4 3 3 3 4 3 3 3 3 2 3 3 3 3 3 3 3 3 5 7 6 2 2 3 3 4 4 8 8 6 2 2 4 5
10 9 8 7 5 6 7 6 4 3 3 3 4 4 3 3 3 4 3 3 3 3 3 3 3 3 3 4 5 6 4 3 2 3 3 5 8 7 6 4 4 4 3
9 7 8 7 5 4 6 5 2 3 3 4 4 3 4 3 3 3 3 3 3 3 2 2 2 2 2 3 5 6 6 5 2 2 5 6 7 6 5 7 7 5 4
8 7 8 7 5 4 4 3 2 3 4 3 3 3 3 3 4 3 2 2 2 2 2 1 1 1 2 3 3 4 4 4 3 3 4 5 6 6 5 5 5 4 3
6 6 6 6 5 4 3 2 2 3 3 3 2 2 3 3 3 3 2 2 1 1 1 1 1 0 1 3 5 4 3 3 2 2 3 4 5 5 5 5 5 5 5
6 6 6 5 4 4 3 2 2 3 3 2 2 1 2 2 2 2 2 2 0 0 2 3 2 2 3 5 6 6 5 4 2 3 3 3 3 4 4 5 5 5 5
Wind_Direction
40 39 43 56 71 74 79 89 99 122 139 149 157 152 138 124 103 87 83 88 98 107 107 110 98 94 100 106 114 116 101 72 60 107 90 67 57 53 41 39 44 44 43
47 40 39 44 51 62 62 72 94 119 138 143 148 136 125 113 103 86 71 63 70 77 92 94 89 79 87 81 75 102 128 84 37 116 142 138 77 51 40 41 46 42 41
44 39 37 35 39 41 44 51 69 81 94 101 102 110 106 101 91 82 71 60 68 75 79 84 85 77 75 73 59 63 117 124 66 41 130 162 178 114 43 39 44 44 47
45 43 38 35 34 32 35 43 60 72 78 103 124 128 124 111 97 93 81 63 59 68 75 80 80 77 73 69 59 51 60 103 115 64 43 58 104 140 130 44 35 45 44
46 44 39 34 31 29 35 35 46 58 66 85 106 114 113 107 100 92 84 72 59 56 63 69 74 74 73 71 66 63 62 64 77 77 64 60 53 59 119 119 37 36 31
49 46 42 40 35 30 36 42 53 52 58 72 82 97 109 113 108 97 91 79 69 60 59 67 69 69 70 69 68 67 67 67 70 66 58 60 63 55 81 109 90 53 15
48 42 37 37 36 30 31 40 56 59 61 72 77 88 99 105 105 102 96 89 79 69 59 66 70 71 70 70 70 70 68 65 69 68 64 60 54 48 64 90 93 66 14
55 49 39 36 37 34 33 42 57 68 69 74 76 79 86 91 92 92 93 87 82 78 74 71 71 71 72 72 70 71 68 66 68 67 64 62 49 45 53 80 107 88 38
64 59 49 42 42 41 41 46 59 68 71 77 80 77 79 84 89 89 86 85 84 84 76 76 75 71 71 71 73 73 69 69 67 66 64 61 49 47 48 55 65 104 92
71 60 55 51 49 50 52 54 58 66 69 71 77 82 79 81 86 87 86 83 80 80 79 75 73 71 70 71 73 72 69 71 63 65 67 61 52 50 47 50 52 55 94
82 69 63 60 60 59 59 60 64 68 70 74 79 81 82 84 83 82 82 81 78 76 77 76 75 72 69 69 74 72 70 71 64 60 67 63 59 58 48 49 50 49 57
88 78 70 69 68 65 63 65 66 70 73 77 80 80 81 82 83 82 79 79 78 74 76 77 75 72 68 66 72 74 69 70 67 62 65 61 64 58 49 49 46 41 43
96 85 76 72 73 73 71 70 70 72 75 79 81 81 79 81 83 83 80 79 80 77 74 74 74 71 67 65 66 71 70 68 66 65 68 65 65 55 43 44 37 25 31
104 97 89 81 78 77 78 80 76 77 80 81 82 81 80 82 83 83 80 78 80 80 77 75 73 69 65 62 62 67 67 62 56 55 59 64 68 56 31 30 19 11 17
117 111 104 96 89 86 84 83 81 79 85 86 83 82 84 83 83 82 82 79 77 79 79 77 69 61 59 54 64 64 66 60 51 43 37 33 49 42 22 3 328 323 339
128 122 117 111 103 97 94 90 86 84 85 86 85 84 83 82 81 82 83 80 76 72 71 69 66 56 48 47 61 73 63 55 50 37 21 16 25 14 11 0 346 308 271
136 131 125 117 111 105 101 99 96 91 87 86 87 87 87 84 81 87 83 82 79 76 70 66 65 57 38 45 53 63 67 57 45 32 13 6 4 4 352 344 346 339 310
137 133 127 118 110 106 102 98 97 96 92 90 91 92 93 91 86 84 83 81 81 82 78 69 63 54 35 42 52 57 57 51 35 18 2 344 335 342 339 333 338 335 323
128 126 124 119 114 113 110 104 98 96 96 94 92 97 100 99 91 86 84 87 94 85 75 71 64 53 25 30 44 53 43 34 14 359 351 341 329 326 335 337 337 334 330
118 119 117 114 111 109 107 102 99 98 97 95 97 100 103 104 98 92 81 80 94 92 84 70 60 55 34 27 38 45 39 20 356 344 341 341 336 330 331 320 322 326 324
117 116 113 109 112 114 111 106 102 101 102 100 94 88 89 96 97 83 63 72 81 77 71 69 54 44 34 25 29 32 35 3 339 337 336 334 338 340 342 328 283 283 298
115 115 111 105 104 110 108 102 103 103 93 88 86 81 78 81 97 92 75 68 81 80 68 66 52 29 19 19 12 13 11 356 328 323 322 323 339 359 14 17 0 349 352
116 114 115 110 101 106 113 117 117 98 91 83 78 72 71 67 83 98 92 74 72 80 71 66 51 7 356 354 359 1 357 356 346 313 321 339 3 21 27 25 26 26 22
116 117 117 117 113 110 111 119 112 104 101 90 79 76 78 75 68 71 83 87 85 83 80 79 51 353 339 342 346 345 346 354 3 351 348 7 26 36 26 18 20 22 16
116 119 124 126 130 126 116 108 110 109 100 89 81 77 84 98 88 72 66 86 110 186 166 180 185 207 324 314 323 326 330 330 332 349 15 22 17 15 11 7 6 7 11
121 123 125 129 133 129 119 107 112 116 114 100 92 96 106 109 110 102 58 33 91 120 177 189 198 249 266 301 328 346 356 7 50 63 41 25 16 11 3 357 353 358 2